Location: Friaudour
(46.0460°N, 1.2873°E)
Time: 20:46:51
(UTC+00:00)

SL-08 R/B - Pass Details

Date: 14 July 2020
Orbit: 674 x 739 km, 98.4° (Epoch: 14 August)

Event Time Altitude Azimuth Distance (km) Brightness Sun altitude
Exits shadow 03:01:16 - 180° (S) 2,486 5.7 -11.0°
Reaches altitude 10° 03:02:06 10° 182° (S) 2,160 5.4 -10.9°
Maximum altitude 03:06:44 54° 259° (W) 864 3.5 -10.3°
Drops below altitude 10° 03:11:30 10° 338° (NNW) 2,217 6.2 -9.7°
Sets 03:13:51 0° 343° (NNW) 3,152 7.1 -9.5°
